Change the Weather History Date:

Wednesday, August 7, 2013

  Actual Average Record
Temperature  
Mean Temperature 56 °F -  
Max Temperature 59 °F 61 °F 83 °F (1968)
Min Temperature 53 °F 49 °F 39 °F (1963)
Degree Days  
Heating Degree Days 9    
Growing Degree Days 6 (Base 50)    
Moisture  
Dew Point 52 °F    
Average Humidity 85    
Maximum Humidity 97    
Minimum Humidity 67    
Precipitation  
Precipitation 0.24 in - - ()
Sea Level Pressure  
Sea Level Pressure 29.68 in    
Wind  
Wind Speed 15 mph (ESE)    
Max Wind Speed 22 mph    
Max Gust Speed 33 mph    
Visibility 9 miles    
Events Rain    
Averages and records for this station are not official NWS values.
T = Trace of Precipitation, MM = Missing Value Source: NWS Daily Summary

Daily Weather History Graph

Daily Weather History Graph

Search for Another Location

Airport or City:

Trip Planner

Search our weather history database for the weather conditions in past years. The results will help you decide how hot, cold, wet, or windy it might be!

Date:

Astronomy

Aug. 07, 2013 Rise Set
Actual Time 6:17 AM AKDT 10:31 PM AKDT
Civil Twilight 5:22 AM AKDT 11:26 PM AKDT
Nautical Twilight 3:50 AM AKDT 12:54 AM AKDT
Astronomical Twilight Sun does not rise Sun does not rise
Moon 7:49 AM AKDT (8/7) 10:02 PM AKDT (8/7)
Length of Visible Light 18h 03m
Length of Day
16h 14m
New Moon, 1% of the Moon is Illuminated
Aug 7
New Moon
Aug 14
First Quarter
Aug 20
Full
Aug 28
Last Quarter
Sep 5
New

Hourly Weather History & Observations

Time (AKDT) Temp. Dew Point Humidity Pressure Visibility Wind Dir Wind Speed Gust Speed Precip Events Conditions
12:53 AM 57.9 °F 52.0 °F 81% 29.65 in 10.0 mi East 19.6 mph 29.9 mph N/A   Overcast
1:53 AM 57.9 °F 52.0 °F 81% 29.65 in 10.0 mi East 18.4 mph 29.9 mph N/A   Overcast
2:53 AM 57.9 °F 52.0 °F 81% 29.65 in 10.0 mi East 20.7 mph 32.2 mph N/A   Overcast
3:53 AM 57.9 °F 52.0 °F 81% 29.64 in 10.0 mi East 17.3 mph 28.8 mph N/A   Overcast
4:53 AM 57.0 °F 52.0 °F 83% 29.64 in 10.0 mi East 18.4 mph 27.6 mph N/A   Mostly Cloudy
5:53 AM 57.0 °F 50.0 °F 77% 29.65 in 10.0 mi East 21.9 mph 33.4 mph N/A   Mostly Cloudy
6:53 AM 55.9 °F 48.9 °F 77% 29.66 in 10.0 mi East 17.3 mph 24.2 mph N/A   Scattered Clouds
7:53 AM 57.0 °F 50.0 °F 77% 29.68 in 10.0 mi East 17.3 mph 24.2 mph N/A   Mostly Cloudy
8:53 AM 57.9 °F 50.0 °F 75% 29.69 in 10.0 mi East 12.7 mph 21.9 mph N/A   Mostly Cloudy
9:53 AM 57.9 °F 50.0 °F 75% 29.68 in 10.0 mi East 10.4 mph 19.6 mph N/A   Mostly Cloudy
10:53 AM 57.9 °F 50.0 °F 75% 29.70 in 10.0 mi East 15.0 mph 20.7 mph N/A   Mostly Cloudy
11:53 AM 57.9 °F 50.0 °F 75% 29.70 in 10.0 mi East 16.1 mph 25.3 mph N/A   Mostly Cloudy
12:53 PM 57.0 °F 50.0 °F 77% 29.70 in 10.0 mi East 13.8 mph 23.0 mph N/A   Mostly Cloudy
1:53 PM 57.0 °F 52.0 °F 83% 29.69 in 10.0 mi SE 15.0 mph 19.6 mph N/A   Mostly Cloudy
2:53 PM 57.9 °F 53.1 °F 84% 29.68 in 10.0 mi SE 15.0 mph 26.5 mph N/A   Mostly Cloudy
3:43 PM 55.4 °F 51.8 °F 88% 29.70 in 10.0 mi SSE 10.4 mph 19.6 mph N/A   Overcast
3:53 PM 55.0 °F 52.0 °F 89% 29.70 in 8.0 mi SSE 11.5 mph - 0.00 in Rain Light Rain
4:51 PM 55.4 °F 51.8 °F 88% 29.69 in 10.0 mi SSE 12.7 mph 18.4 mph 0.00 in   Overcast
4:53 PM 55.0 °F 52.0 °F 89% 29.70 in 10.0 mi SSE 12.7 mph 18.4 mph 0.00 in   Overcast
5:53 PM 54.0 °F 52.0 °F 93% 29.70 in 5.0 mi SSE 5.8 mph - 0.07 in Rain Rain
6:53 PM 55.0 °F 53.1 °F 93% 29.69 in 4.0 mi East 3.5 mph - 0.07 in Rain Rain
7:53 PM 55.0 °F 54.0 °F 96% 29.68 in 8.0 mi Calm Calm - 0.06 in Rain Light Rain
8:40 PM 55.4 °F 53.6 °F 94% 29.68 in 10.0 mi Calm Calm - 0.03 in Rain Light Rain
8:53 PM 54.0 °F 53.1 °F 97% 29.68 in 10.0 mi East 3.5 mph - 0.03 in Rain Light Rain
9:53 PM 54.0 °F 53.1 °F 97% 29.68 in 10.0 mi ESE 5.8 mph - 0.00 in   Overcast
10:37 PM 53.6 °F 51.8 °F 94% 29.67 in 10.0 mi SE 6.9 mph - N/A   Overcast
10:53 PM 54.0 °F 52.0 °F 93% 29.68 in 10.0 mi SE 5.8 mph - N/A   Overcast
11:53 PM 54.0 °F 52.0 °F 93% 29.68 in 10.0 mi South 5.8 mph - N/A   Overcast